#timestamp,LO_Frequency,Hit,StdDev 
1582185615.1,286046998.3,N
1582185635.8,286046999.4,N
1582185655.7,286047000.8,N
1582185675.5,286046999.0,N
1582185695.4,286047001.2,N
1582185715.2,286046998.7,N
1582185735.0,286046998.4,N
1582185735.9,286046998.4,N
1582185755.8,286047000.8,N
1582185775.6,286047000.9,N
1582185795.5,286047000.1,N
1582185815.3,286047000.4,N
1582185835.1,286047000.7,N
1582185855.9,286047002.4,N
1582185875.7,286047002.7,N
1582185895.6,286046998.2,N
1582185915.4,286047001.2,N
1582185935.2,286047000.7,N
1582185955.1,286047001.7,N
1582185956.0,286047001.7,N
1582185975.8,286046999.9,N
1582185995.7,286047001.4,N
1582186015.5,286047002.8,N
1582186035.3,286047002.0,N
1582186055.2,286047000.5,N
1582186075.0,286047003.2,N
1582186075.9,286047003.2,N
1582186095.8,286047003.9,N
1582186115.6,286046999.7,N
1582186135.4,286047002.4,N
1582186155.3,286046998.2,N
1582186175.1,286047001.1,N
1582186198.7,286047000.1,N
1582186215.8,286047002.8,N
1582186235.7,286047001.9,N
1582186255.5,286047000.0,N
1582186275.3,286046999.8,N
1582186295.2,286047000.6,N
1582186315.0,286047000.6,N
1582186315.9,286047000.6,N
1582186335.7,286047000.6,N
1582186355.6,286047000.1,N
1582186375.4,286047001.3,N
1582186395.3,286047002.1,N
1582186415.1,286047004.4,Y
1582186435.8,286047001.4,P
1582186455.7,286046999.8,N
1582186475.5,286047002.4,P
1582186495.4,286047000.1,N
1582186515.2,286047000.1,N
1582186535.0,286047000.1,N
1582186535.9,286047000.1,N
1582186555.8,286047001.9,N
1582186575.6,286047002.0,N
1582186595.4,286047002.3,N
1582186615.3,286047000.6,N
1582186635.1,286047000.1,N
1582186655.9,286047000.1,N
1582186675.7,286047000.5,N
1582186695.5,286047001.0,N
1582186715.4,286047000.7,N
1582186735.2,286047000.0,N
1582186755.1,286047002.6,Y
1582186756.0,286047002.6,P
1582186775.8,286047002.7,N
1582186795.6,286047002.1,N
1582186815.5,286047000.1,N
1582186835.3,286047001.1,N
1582186855.2,286046999.9,N
1582186875.9,286047001.5,N
1582186895.7,286047001.8,N
1582186915.6,286047002.1,N
1582186935.4,286047002.3,N
1582186955.3,286047003.1,Y
1582186975.1,286046999.9,P
1582186976.0,286046999.9,N
1582186995.8,286046999.7,N
1582187015.7,286047001.9,N
1582187035.5,286047001.9,N
1582187055.4,286047000.1,N
1582187075.2,286047000.5,N
1582187095.0,286047000.5,N
1582187095.9,286047000.5,N
1582187115.8,286047002.2,N
1582187135.6,286047002.9,Y
1582187155.5,286047003.8,P
1582187175.3,286047004.4,N
1582187195.1,286047003.7,N
1582187215.9,286047003.1,N
1582187235.7,286047000.1,N
1582187255.5,286046999.7,N
1582187275.4,286047000.1,N
1582187295.2,286046998.8,N
1582187315.1,286046998.5,N
1582187316.0,286046998.5,N
1582187335.8,286047000.7,N
1582187355.6,286047000.1,N
1582187375.5,286046999.7,N
1582187395.3,286047002.7,N
1582187415.2,286046998.1,N
1582187435.9,286047000.7,N
1582187455.7,286047002.3,N
1582187475.6,286047001.1,N
1582187495.4,286047000.1,N
1582187515.2,286047001.9,N
1582187535.1,286047002.7,N
1582187536.0,286047002.7,N
1582187555.8,286046999.7,N
1582187575.7,286046999.0,N
1582187595.5,286046998.9,N
1582187615.3,286046999.1,N
1582187635.2,286046997.0,N
1582187655.0,286046996.7,N
1582187655.9,286046996.7,N
1582187675.8,286046999.8,N
1582187695.6,286047002.0,N
1582187715.4,286047003.8,N
1582187735.3,286047002.9,N
1582187755.1,286047003.6,N
1582187775.8,286047005.3,N
1582187795.7,286047001.5,N
1582187815.5,286047000.0,N
1582187835.4,286047000.7,N
1582187855.2,286047002.6,N
1582187875.0,286046999.9,N
1582187875.9,286046999.9,N
1582187895.8,286047002.7,N
1582187915.6,286047001.5,N
1582187935.5,286047004.0,N
1582187955.3,286047004.2,N
1582187975.1,286047002.8,N
1582187995.9,286047001.6,N
1582188015.7,286047001.1,N
1582188035.5,286047000.3,N
1582188055.4,286046998.7,N
1582188075.2,286047000.8,N
1582188095.1,286047001.1,N
1582188096.0,286047001.1,N
1582188115.8,286046998.1,N
1582188135.6,286047000.4,N
1582188155.5,286047001.1,N
1582188175.3,286047000.6,N
1582188195.2,286047001.1,N
1582188215.9,286046998.4,N
1582188235.7,286047002.7,N
1582188255.6,286047002.4,N
1582188275.4,286046998.1,N
1582188295.3,286046998.9,N
1582188315.1,286046999.4,N
1582188316.0,286046999.4,N
1582188335.8,286047000.9,N
1582188355.7,286047000.2,N
1582188375.5,286046998.3,N
1582188395.3,286046998.1,N
1582188415.2,286046998.2,N
1582188435.0,286046998.8,N
1582188435.9,286046998.8,N
1582188455.8,286047000.8,N
1582188475.6,286046998.2,N
1582188495.4,286046995.2,N
1582188515.3,286047002.4,N
1582188535.1,286047001.8,N
1582188555.9,286047004.4,N
1582188575.7,286047002.4,N
1582188595.5,286047002.2,N
1582188615.4,286047001.9,N
1582188635.2,286047004.4,N
1582188655.0,286047006.0,N
1582188655.9,286047006.0,N
1582188675.8,286047004.3,N
1582188695.6,286047001.8,N
1582188715.5,286047003.7,N
1582188735.3,286047002.0,N
1582188755.1,286046998.5,N
1582188775.9,286046998.3,N
1582188795.7,286047002.0,N
1582188815.6,286047001.9,N
1582188835.4,286047002.5,N
1582188855.2,286046998.2,N
1582188875.1,286046996.6,N
1582188876.0,286046996.6,N
1582188895.8,286046996.0,N
1582188915.6,286046995.2,N
1582188935.5,286046997.3,N
1582188955.3,286046995.1,N
1582188975.2,286046995.4,N
1582188995.9,286046998.0,N
1582189015.7,286046997.1,N
1582189035.6,286046998.3,N
1582189055.4,286046995.0,N
1582189075.3,286046996.9,N
1582189095.1,286046997.3,N
1582189096.0,286046997.3,N
1582189115.8,286046995.4,N
1582189135.7,286046997.1,N
1582189155.5,286046999.2,N
1582189175.4,286046998.0,N
1582189195.2,286046996.0,N
